Regional Weather Roundup
Issued by NWS Cleveland, OH

Home | Current Version | Previous Version | Graphics & Text | Print | Product List | Glossary On
Versions: 1 2 3 4 5 6 7 8 9 10 11 12 13 14 15 16 17 18 19 20 21 22 23 24 25 26 27 28 29 30 31 32 33 34 35 36 37 38 39 40 41 42 43 44 45 46 47 48 49 50
000
ASUS41 KCLE 300100
RWRCLE
OHIO REGIONAL WEATHER ROUNDUP
NATIONAL WEATHER SERVICE WILMINGTON, OH
900 PM EDT WED JUL 29 2015

NOTE: "FAIR" INDICATES FEW OR NO CLOUDS BELOW 12,000 FEET WITH NO
SIGNIFICANT WEATHER AND/OR OBSTRUCTIONS TO VISIBILITY.

OHZ001>008-015>018-024>027-034-035-043-044-300200-
   NORTHWEST OHIO

CITY           SKY/WX    TMP DP  RH WIND       PRES   REMARKS
DEFIANCE       CLEAR     80  69  69 NW8       29.94R
FINDLAY        MOCLDY    74  71  91 S3        29.92F
TOLEDO EXPRESS PTCLDY    78  74  87 SW7       29.91R
TOLEDO EXEC    MOCLDY    78  73  84 SW3       29.91S
LIMA           MOCLDY    78  70  76 SW3       29.94F
$$

OHZ009>014-019>023-028>033-038-089-300200-
   NORTHEAST OHIO

CITY           SKY/WX    TMP DP  RH WIND       PRES   REMARKS
CLE-HOPKINS    LGT RAIN  76  73  91 SW7       29.93F
CLE-LAKEFRONT  LGT RAIN  79  73  82 SW14      29.90S
CUY CO. ARPT   LGT RAIN  79  75  89 W12       29.93R
LORAIN-ELYRIA  LGT RAIN  75  73  93 SW6       29.93F
ASHTABULA      CLOUDY    78  69  73 CALM      29.91F
AKRON-CANTON   CLOUDY    83  71  67 SW5       29.94S
WOOSTER        NOT AVBL
MANSFIELD      CLOUDY    78  72  81 SW5       29.96S
YOUNGSTOWN     CLOUDY    79  69  71 S5        29.93F
$$

OHZ042-051>053-060>062-070>072-077>081-300200-
  SOUTHWEST OHIO

CITY           SKY/WX    TMP DP  RH WIND       PRES   REMARKS
CINC-COVINGTON CLOUDY    76  74  93 CALM      29.97F THUNDER FOG
CINC-LUNKEN    CLOUDY    77  74  90 CALM      29.97R
HAMILTON       CLOUDY    78  75  90 CALM      29.96S
DAYTON         NOT AVBL
WRIGHT-PAT AFB NOT AVBL
DAYTON GENERAL MOCLDY    77  74  90 S3        29.96R
WILMINGTON     CLOUDY    75  70  84 SW7       29.97R
$$

OHZ036-037-039>041-045>050-054>059-063>069-073>076-082>088-300200-
  CENTRAL AND SOUTHEAST OHIO

CITY           SKY/WX    TMP DP  RH WIND       PRES   REMARKS
COLUMBUS       CLOUDY    75  72  90 CALM      29.94S
OSU AIRPORT    CLOUDY    75  73  93 CALM      29.95S
BOLTON FIELD   NOT AVBL
RICKENBACK AFB NOT AVBL
NEWARK         LGT RAIN  75  72  90 CALM      29.95R
MARION         CLOUDY    78  73  84 W5        29.96R
LANCASTER      CLOUDY    74  71  91 CALM      29.96R
ZANESVILLE     MOCLDY    82  73  74 CALM      29.94R HAZE
NEW PHILLY     MOCLDY    78  74  87 CALM      29.94R
$$


USA.gov is the U.S. government's official web portal to all federal, state and local government web resources and services.